DL8GAK-13 Weather Reports


time (UTC)temp
C
wind
direction
speed
KPH
gust
KPH
rain 1hr
cm
rain 24hr
cm
rain mn
cm
humidity
%
barometer
mb
20260506230032 12 0.0 0.0 0.00 0.00 0.00 68 1018.3
20260506225031 12 0.0 0.0 0.00 0.00 0.00 68 1018.3
20260506224030 12 0.0 0.0 0.00 0.00 0.00 67 1018.3
20260506223029 12 0.0 0.0 0.00 0.00 0.00 68 1018.3
20260506222028 12 0.0 0.0 0.00 0.00 0.00 68 1018.2
20260506221027 12 0.0 0.0 0.00 0.00 0.00 68 1018.3
20260506220026 12 0.0 0.0 0.00 0.00 0.00 68 1018.2
20260506215025 13 0.0 0.0 0.00 0.00 0.00 68 1018.1
20260506214024 13 0.0 0.0 0.00 0.00 0.00 68 1018.1
20260506213023 13 0.0 0.0 0.00 0.00 0.00 68 1018.0
20260506212022 13 0.0 0.0 0.00 0.00 0.00 68 1018.1
20260506211021 13 0.0 0.0 0.00 0.00 0.00 68 1018.0
20260506210020 13 0.0 0.0 0.00 0.00 0.00 68 1017.9
20260506205019 13 0.0 0.0 0.00 0.00 0.00 68 1017.8
20260506204018 13 0.0 0.0 0.00 0.00 0.00 67 1017.8
20260506203017 13 0.0 0.0 0.00 0.00 0.00 68 1017.9
20260506202016 13 0.0 0.0 0.00 0.00 0.00 68 1017.9
20260506201015 13 0.0 0.0 0.00 0.00 0.00 68 1017.8
20260506200014 13 0.0 0.0 0.00 0.00 0.00 68 1017.7
20260506195013 13 0.0 0.0 0.00 0.00 0.00 68 1017.7
20260506193011 13 0.0 0.0 0.00 0.00 0.00 67 1017.5
20260506192010 13 0.0 0.0 0.00 0.00 0.00 67 1017.3
20260506191009 13 0.0 0.0 0.00 0.00 0.00 67 1017.3
20260506190008 13 0.0 0.0 0.00 0.00 0.00 67 1017.1
20260506185007 13 0.0 0.0 0.00 0.00 0.00 67 1017.0
20260506184006 13 0.0 0.0 0.00 0.00 0.00 67 1016.8
20260506183005 13 0.0 0.0 0.00 0.00 0.00 66 1016.8
20260506182004 13 0.0 0.0 0.00 0.00 0.00 67 1016.6
20260506180003 13 0.0 0.0 0.00 0.00 0.00 67 1016.5
20260506175001 13 0.0 0.0 0.00 0.00 0.00 66 1016.5
20260506174000 13 0.0 0.0 0.00 0.00 0.00 66 1016.5
20260506172959 13 0.0 0.0 0.00 0.00 0.00 65 1016.3
20260506171958 14 0.0 0.0 0.00 0.00 0.00 65 1016.2
20260506170957 14 0.0 0.0 0.00 0.00 0.00 65 1015.9
20260506165956 14 0.0 0.0 0.00 0.00 0.00 65 1015.8
20260506164955 14 0.0 0.0 0.00 0.00 0.00 65 1015.8
20260506163954 14 0.0 0.0 0.00 0.00 0.00 65 1016.0
20260506162953 14 0.0 0.0 0.00 0.00 0.00 65 1015.9
20260506161952 15 0.0 0.0 0.00 0.00 0.00 65 1015.9
20260506160951 15 0.0 0.0 0.00 0.00 0.00 65 1015.7
20260506155951 15 0.0 0.0 0.00 0.00 0.00 65 1015.7
20260506154950 15 0.0 0.0 0.00 0.00 0.00 64 1015.6
20260506153949 15 0.0 0.0 0.00 0.00 0.00 63 1015.3
20260506152948 16 0.0 0.0 0.00 0.00 0.00 63 1015.3
20260506151947 16 0.0 0.0 0.00 0.00 0.00 63 1015.0
20260506150946 16 0.0 0.0 0.00 0.00 0.00 62 1014.9
20260506145946 17 0.0 0.0 0.00 0.00 0.00 59 1014.3
20260506144944 19 0.0 0.0 0.00 0.00 0.00 56 1014.2
20260506143943 21 0.0 0.0 0.00 0.00 0.00 56 1013.4
20260506142942 21 0.0 0.0 0.00 0.00 0.00 55 1013.5
20260506141941 21 0.0 0.0 0.00 0.00 0.00 57 1013.5
20260506140940 20 0.0 0.0 0.00 0.00 0.00 61 1013.5
20260506135939 18 0.0 0.0 0.00 0.00 0.00 65 1013.5
20260506134937 17 0.0 0.0 0.00 0.00 0.00 68 1013.5
20260506133936 17 0.0 0.0 0.00 0.00 0.00 63 1013.5
20260506132935 17 0.0 0.0 0.00 0.00 0.00 60 1014.3
20260506131934 17 0.0 0.0 0.00 0.00 0.00 58 1014.1
20260506130933 17 0.0 0.0 0.00 0.00 0.00 58 1013.9
20260506125932 17 0.0 0.0 0.00 0.00 0.00 58 1013.8
20260506124931 18 0.0 0.0 0.00 0.00 0.00 57 1013.7
20260506123930 18 0.0 0.0 0.00 0.00 0.00 57 1013.6
20260506122929 18 0.0 0.0 0.00 0.00 0.00 58 1013.6
20260506121929 18 0.0 0.0 0.00 0.00 0.00 58 1013.4
20260506120927 18 0.0 0.0 0.00 0.00 0.00 59 1013.4
20260506115926 18 0.0 0.0 0.00 0.00 0.00 59 1013.3
20260506114925 18 0.0 0.0 0.00 0.00 0.00 59 1013.5
20260506113924 18 0.0 0.0 0.00 0.00 0.00 59 1013.5
20260506112923 18 0.0 0.0 0.00 0.00 0.00 60 1013.5
20260506111922 18 0.0 0.0 0.00 0.00 0.00 59 1013.6
20260506110921 18 0.0 0.0 0.00 0.00 0.00 60 1013.7
20260506105920 18 0.0 0.0 0.00 0.00 0.00 60 1013.8
20260506104919 18 0.0 0.0 0.00 0.00 0.00 61 1013.8
20260506103918 17 0.0 0.0 0.00 0.00 0.00 61 1013.8
20260506102917 17 0.0 0.0 0.00 0.00 0.00 61 1013.8
20260506101916 17 0.0 0.0 0.00 0.00 0.00 62 1013.9
20260506100915 17 0.0 0.0 0.00 0.00 0.00 61 1014.0
20260506095914 17 0.0 0.0 0.00 0.00 0.00 61 1014.2
20260506094913 17 0.0 0.0 0.00 0.00 0.00 60 1014.4
20260506093912 16 0.0 0.0 0.00 0.00 0.00 60 1014.5
20260506092911 16 0.0 0.0 0.00 0.00 0.00 61 1014.5
20260506091910 16 0.0 0.0 0.00 0.00 0.00 63 1014.6
20260506090909 16 0.0 0.0 0.00 0.00 0.00 63 1014.6
20260506085908 16 0.0 0.0 0.00 0.00 0.00 64 1014.5
20260506084907 16 0.0 0.0 0.00 0.00 0.00 65 1014.4
20260506083906 16 0.0 0.0 0.00 0.00 0.00 65 1014.4
20260506082905 16 0.0 0.0 0.00 0.00 0.00 66 1014.3
20260506081904 16 0.0 0.0 0.00 0.00 0.00 66 1014.4
20260506080903 15 0.0 0.0 0.00 0.00 0.00 67 1014.5
20260506072859 15 0.0 0.0 0.00 0.00 0.00 68 1014.6
20260506071858 15 0.0 0.0 0.00 0.00 0.00 69 1014.7
20260506070857 15 0.0 0.0 0.00 0.00 0.00 69 1014.7
20260506061852 13 0.0 0.0 0.00 0.00 0.00 70 1014.7
20260506060851 13 0.0 0.0 0.00 0.00 0.00 70 1014.6
20260506050845 12 0.0 0.0 0.00 0.00 0.00 70 1014.9
20260506044842 12 0.0 0.0 0.00 0.00 0.00 69 1015.0
20260506043841 12 0.0 0.0 0.00 0.00 0.00 69 1015.1
20260506042841 12 0.0 0.0 0.00 0.00 0.00 69 1015.2
20260506041839 12 0.0 0.0 0.00 0.00 0.00 69 1015.3
20260506040838 12 0.0 0.0 0.00 0.00 0.00 69 1015.3
20260506035837 12 0.0 0.0 0.00 0.00 0.00 69 1015.4
20260506034836 12 0.0 0.0 0.00 0.00 0.00 69 1015.5
20260506033835 13 0.0 0.0 0.00 0.00 0.00 69 1015.6
20260506032834 13 0.0 0.0 0.00 0.00 0.00 69 1015.7
20260506031833 13 0.0 0.0 0.00 0.00 0.00 69 1015.7
20260506030832 13 0.0 0.0 0.00 0.00 0.00 69 1015.7
20260506025831 13 0.0 0.0 0.00 0.00 0.00 69 1015.8
20260506024830 13 0.0 0.0 0.00 0.00 0.00 69 1015.8
20260506023829 13 0.0 0.0 0.00 0.00 0.00 70 1015.9
20260506022828 13 0.0 0.0 0.00 0.00 0.00 69 1015.9
20260506021827 13 0.0 0.0 0.00 0.00 0.00 69 1015.9
20260506020826 13 0.0 0.0 0.00 0.00 0.00 69 1015.9
20260506015825 13 0.0 0.0 0.00 0.00 0.00 69 1016.1
20260506014824 13 0.0 0.0 0.00 0.00 0.00 69 1016.2
20260506013823 13 0.0 0.0 0.00 0.00 0.00 69 1016.2
20260506012822 13 0.0 0.0 0.00 0.00 0.00 69 1016.2
20260506011821 13 0.0 0.0 0.00 0.00 0.00 69 1016.2
20260506010820 13 0.0 0.0 0.00 0.00 0.00 69 1016.5
20260506005819 13 0.0 0.0 0.00 0.00 0.00 69 1016.4
20260506004818 13 0.0 0.0 0.00 0.00 0.00 69 1016.5
20260506003817 14 0.0 0.0 0.00 0.00 0.00 69 1016.4
20260506002816 14 0.0 0.0 0.00 0.00 0.00 69 1016.3
20260506001815 14 0.0 0.0 0.00 0.00 0.00 69 1016.4
20260506000814 13 0.0 0.0 0.00 0.00 0.00 69 1016.4
20260505235813 13 0.0 0.0 0.00 0.00 0.00 69 1016.5
20260505234812 13 0.0 0.0 0.00 0.00 0.00 69 1016.7
20260505233811 13 0.0 0.0 0.00 0.00 0.00 68 1016.6
20260505232810 13 0.0 0.0 0.00 0.00 0.00 68 1016.7
20260505231809 13 0.0 0.0 0.00 0.00 0.00 69 1016.7
20260505230808 13 0.0 0.0 0.00 0.00 0.00 69 1016.8